SCP
0 0 0 0 0 -0 -0 0 0 0 0 0 0 0 0 0 0 0 0 0 0 0 0 0 0 0 0 0 0 0 0 0 0 0 0 0 0 0 0 0 0 0 0 0 0 0 0 0 0
0 0 0 0 0 -0 0 0 0 0 0 0 0 0 0 0 0 0 0 0 0 0 0 0 0 0 0 0 0 0 0 0 0 0 0 0 0 0 0 0 0 0 0 0 0 0 0 0 0
0 0 0 0 0 -0 0 0 0 0 0 0 0 0 0 0 0 0 0 0 0 0 0 0 0 0 0 0 0 0 0 0 0 0 0 0 0 0 0 0 0 0 0 0 0 0 0 0 0
0 0 0 0 0 -0 -0 0 0 0 0 0 0 0 0 0 0 0 0 0 0 0 0 0 0 0 0 0 0 0 0 0 0 0 0 0 0 0 0 0 0 0 0 0 0 0 0 0 0
0 0 0 0 -0 -0 -0 0 0 0 0 0 0 0 0 0 0 0 0 0 0 0 0 0 0 0 0 0 0 0 0 0 0 0 0 0 0 0 0 0 0 0 0 0 0 0 0 0 0
0 0 0 0 -0 -0 0 0 0 0 0 0 0 0 0 0 0 0 0 0 0 0 0 0 0 0 0 0 0 0 0 0 0 0 0 0 0 0 0 0 0 0 0 0 0 0 0 0 0
0 0 0 0 0 0 0 0 0 0 0 0 0 0 0 0 0 0 0 0 0 0 0 0 0 0 0 0 0 0 0 0 0 0 0 0 0 0 0 0 0 0 0 0 0 0 0 0 0
0 0 0 0 0 0 0 0 0 0 0 0 0 0 0 0 0 0 0 0 0 0 0 0 0 0 0 0 0 0 0 0 0 0 0 0 0 0 0 0 0 0 0 0 0 0 0 0 0
0 0 0 0 0 0 0 0 0 0 0 0 0 0 0 0 0 0 0 0 0 0 0 0 0 0 0 0 0 0 0 0 0 0 0 0 0 0 0 0 0 0 0 0 0 0 0 0 0
0 0 0 0 0 0 0 0 0 0 0 0 0 0 0 0 0 0 0 0 0 0 0 0 0 0 0 0 0 0 0 0 0 0 0 0 0 0 0 0 0 0 0 0 0 0 0 0 0
0 0 0 0 0 0 0 0 0 0 0 0 0 0 0 0 0 0 0 0 0 0 0 0 0 0 0 0 0 0 0 0 0 0 0 0 0 0 0 0 0 0 0 0 0 0 0 0 0
0 0 0 0 0 0 0 0 0 0 0 0 0 0 0 0 0 0 0 0 0 0 0 0 0 0 0 0 0 0 0 0 0 0 0 0 0 0 0 0 0 0 0 0 0 0 0 0 0
0 0 0 0 0 0 0 0 0 0 0 0 0 0 0 0 0 0 0 0 0 0 0 0 0 0 0 0 0 0 0 0 0 0 0 0 0 0 0 0 0 0 0 0 0 0 0 0 0
0 0 0 0 0 0 0 0 0 0 0 0 0 0 0 0 0 0 0 0 0 0 0 0 0 0 0 0 0 0 0 0 0 0 0 0 0 0 0 0 0 0 0 0 0 0 0 0 0
0 0 0 0 0 0 0 0 0 0 0 0 0 0 0 0 0 0 0 0 0 0 0 0 0 0 0 0 0 0 0 0 0 0 0 0 0 0 0 0 0 0 0 0 0 0 0 0 0
0 0 0 0 0 0 0 0 0 0 0 0 0 0 0 0 0 0 0 0 0 0 0 0 0 0 0 0 0 0 0 0 0 0 0 0 0 0 0 0 0 0 0 0 0 0 0 0 0
0 0 0 0 0 0 0 0 0 0 0 0 0 0 0 0 0 0 0 0 0 0 0 0 0 0 0 -0 0 0 0 0 0 0 0 0 0 0 0 0 0 0 0 0 0 0 0 0 0
0 0 0 0 0 0 0 0 0 0 0 0 0 0 0 0 0 0 0 0 0 0 0 0 0 0 -0 -0 0 0 0 0 0 0 0 0 0 0 0 0 0 0 0 0 0 0 0 0 0
0 0 0 0 0 0 0 0 0 0 0 0 0 0 0 0 0 0 0 0 0 0 0 0 0 0 -0 -0 0 0 0 0 0 0 0 0 0 0 0 0 0 0 0 0 0 0 0 0 0
0 0 0 0 0 0 0 0 0 0 0 0 0 0 0 0 0 0 0 0 0 0 0 0 0 0 -0 0 0 0 0 0 0 0 0 0 0 0 0 0 0 0 0 0 0 0 0 0 0
0 0 0 0 0 0 0 0 0 0 0 0 0 0 0 0 0 0 0 0 0 0 0 0 0 0 0 0 0 0 0 0 0 0 0 0 0 0 0 0 0 0 0 0 0 0 0 0 0
0 0 0 0 0 0 0 0 0 0 0 0 0 0 0 0 0 0 0 0 0 0 0 0 0 0 0 0 0 0 0 0 0 0 0 0 0 0 0 0 0 0 0 0 0 0 0 0 0
0 0 0 0 0 0 0 0 0 0 0 0 0 0 0 0 0 0 0 0 0 0 0 0 0 0 0 0 0 0 0 0 0 0 0 0 0 0 0 0 0 0 0 0 0 0 0 0 0
0 0 0 0 0 0 0 0 0 0 0 0 0 0 0 0 0 0 0 0 0 0 0 0 0 0 0 0 0 0 0 0 0 0 0 0 0 0 0 0 0 0 0 0 0 0 0 0 0
0 0 0 0 0 0 0 0 0 0 0 0 0 0 0 0 0 0 0 0 0 0 0 0 0 0 0 0 0 0 0 0 0 0 0 0 0 0 0 0 0 0 0 0 0 0 0 0 0
0 0 0 0 0 0 0 0 0 0 0 0 0 0 0 0 0 0 0 0 0 0 0 0 0 0 0 0 0 0 0 0 0 0 0 0 0 0 0 0 0 0 0 0 0 0 0 0 0
-0 -0 0 0 0 0 0 0 0 0 0 0 0 0 0 0 0 0 0 0 0 0 0 0 0 0 0 0 0 0 0 0 0 0 0 0 0 0 0 0 0 0 0 0 0 0 0 0 0
0 0 0 0 0 0 0 0 0 0 0 0 0 0 0 0 0 0 0 0 0 0 0 0 0 0 0 0 0 0 0 0 0 0 0 0 0 0 0 0 0 0 0 0 0 0 0 0 0
0 0 0 0 0 0 0 0 0 0 0 0 0 0 0 0 0 0 0 0 0 0 0 0 0 0 0 0 0 0 0 0 0 0 0 0 0 0 0 0 0 0 0 0 0 0 0 0 0
0 0 0 0 0 0 0 0 0 0 0 0 0 0 0 0 0 0 0 0 0 0 0 0 0 0 0 0 0 0 0 0 0 0 0 0 0 0 0 0 0 0 0 0 0 0 0 0 0
Wind_Speed
9 5 4 2 2 2 1 3 1 2 4 5 9 10 8 6 5 5 1 3 8 7 6 8 9 8 7 7 6 6 5 4 4 4 4 3 3 3 2 2 2 1 1 2 2 2 2 2 3
5 5 3 2 2 1 2 3 1 3 7 7 8 8 7 7 5 4 2 4 7 7 5 6 8 8 7 6 5 5 5 4 4 4 4 4 3 3 3 3 3 2 2 2 2 2 1 1 1
6 3 3 2 1 3 3 2 1 5 5 5 6 6 5 3 3 2 2 5 6 5 4 5 8 7 5 5 4 4 4 4 4 5 5 5 5 5 5 4 4 4 3 3 3 2 2 1 1
5 2 2 2 2 3 4 3 3 4 6 6 7 6 4 3 2 2 4 6 6 4 3 4 6 5 4 4 3 3 3 3 4 5 5 6 6 6 6 6 5 5 4 4 4 3 3 3 2
2 3 3 1 2 3 2 2 3 4 4 5 6 6 3 1 4 5 5 5 5 4 2 3 5 4 3 3 3 3 3 3 4 4 5 6 6 6 7 7 6 6 6 6 5 5 5 4 3
2 3 3 2 2 1 1 2 5 8 6 7 7 6 2 1 3 4 5 4 4 4 2 1 2 3 3 3 3 3 4 4 4 5 5 6 6 6 7 7 7 7 7 7 6 6 6 5 5
2 3 2 3 2 0 1 2 4 6 6 4 6 6 3 2 4 4 4 4 3 3 2 1 0 1 2 3 4 4 5 5 5 5 6 6 6 7 7 8 8 8 8 9 8 8 8 7 6
4 4 2 1 3 2 2 2 4 6 5 4 5 7 5 5 4 4 3 3 2 2 2 1 0 1 2 3 4 5 5 6 6 7 7 8 8 7 7 7 8 9 9 10 9 9 9 8 8
4 4 1 3 4 4 4 4 3 5 6 4 3 5 6 7 6 5 3 2 2 2 1 1 1 1 1 2 3 4 5 5 6 6 8 7 3 3 4 6 6 8 9 9 10 9 9 8 8
4 2 3 4 4 3 3 6 6 5 6 4 4 4 6 7 6 5 4 3 2 2 2 2 2 2 2 2 2 2 3 3 3 3 4 3 3 3 4 5 7 7 7 8 9 9 8 6 3
4 2 3 6 4 2 2 3 4 9 4 6 8 8 7 7 6 6 5 4 3 2 3 2 2 2 3 2 2 2 2 2 3 3 3 3 3 3 3 2 3 4 4 3 4 4 2 2 2
4 1 1 5 4 2 2 4 4 5 7 9 10 9 7 8 7 7 6 4 4 4 3 2 3 3 3 3 2 2 2 2 2 2 2 1 1 2 2 2 2 2 2 2 2 1 2 2 2
4 2 2 5 5 2 3 5 5 4 8 9 9 9 9 8 7 5 6 5 5 4 2 2 3 3 3 3 3 3 3 2 2 2 2 1 1 2 2 2 2 3 2 2 2 2 3 3 2
5 5 3 4 3 0 3 3 5 6 9 10 9 8 8 8 8 6 6 6 5 4 2 2 3 3 3 3 3 3 3 3 3 2 3 2 1 1 2 2 2 2 2 2 3 3 3 3 2
4 3 1 3 3 2 3 1 6 9 10 9 8 8 8 7 7 8 7 6 5 4 2 2 3 4 4 4 4 3 3 3 3 3 3 3 2 2 1 1 1 2 2 2 2 3 2 2 3
2 2 1 3 3 3 4 6 6 8 10 8 7 7 7 6 7 7 7 6 5 4 3 3 4 4 4 3 4 3 3 3 2 3 3 4 4 3 2 2 2 2 1 1 1 2 2 2 2
1 2 3 4 6 3 4 6 5 8 9 8 7 7 7 6 6 6 6 6 5 4 4 4 3 3 3 4 4 3 3 3 2 3 3 4 4 4 3 2 2 2 1 1 1 1 1 2 2
4 3 3 5 6 7 6 6 5 8 8 8 7 6 7 8 7 6 6 6 5 4 5 4 3 3 3 3 3 3 4 3 3 3 3 4 4 5 3 2 3 3 2 1 1 1 1 1 2
7 5 3 4 6 7 8 7 9 9 7 7 6 7 8 7 6 6 6 6 5 5 5 4 3 2 2 2 2 2 3 3 3 3 4 4 4 4 3 3 3 3 2 2 2 1 1 1 0
5 3 2 2 4 6 5 6 7 9 10 9 9 9 9 7 6 5 5 5 5 5 5 4 3 2 2 1 0 0 1 2 2 3 4 4 4 4 3 3 3 3 2 3 3 1 1 1 1
3 5 5 4 1 1 1 3 2 4 5 5 6 8 10 12 11 8 6 5 5 5 5 4 3 2 1 1 1 2 3 3 3 4 4 4 4 3 3 3 2 3 2 2 3 1 1 0 1
4 6 5 4 2 3 2 2 4 5 5 6 6 8 10 10 9 8 7 7 6 5 5 5 4 2 1 1 2 1 1 1 2 2 3 4 4 4 3 3 3 3 2 2 3 2 1 0 0
7 5 3 2 3 2 1 3 6 3 6 7 7 8 9 10 10 9 8 8 7 6 5 4 4 2 1 1 1 1 0 1 2 2 3 4 4 4 3 3 3 3 2 2 3 2 1 0 1
4 5 6 6 5 2 4 5 5 6 9 7 6 7 8 9 9 8 7 6 5 5 4 4 4 2 2 1 1 1 1 0 1 3 3 3 3 3 4 3 3 3 2 3 2 2 2 1 1
5 7 5 4 4 6 3 4 7 6 6 8 9 8 8 9 9 8 7 7 6 6 5 4 4 3 3 2 1 2 2 2 1 1 2 2 2 3 4 3 3 3 3 3 2 2 2 2 1
4 8 7 4 4 5 2 3 5 2 3 5 7 8 8 8 8 9 9 8 7 7 6 5 5 4 3 3 3 2 2 2 2 2 1 1 2 3 3 4 4 4 3 3 2 2 2 2 2
4 3 7 6 2 2 3 2 3 1 2 4 5 7 8 9 9 9 8 7 7 7 7 6 6 4 4 4 3 2 2 2 2 2 1 2 2 2 3 3 4 4 4 3 2 2 2 3 2
5 7 5 4 2 2 3 3 5 7 7 6 7 8 8 8 8 8 8 7 7 7 6 5 5 5 4 4 3 2 2 2 2 1 1 2 3 3 3 4 3 4 3 3 2 2 3 3 3
2 2 5 4 4 5 2 7 7 11 10 9 9 8 9 9 9 8 7 7 7 6 5 5 4 4 4 4 3 2 2 2 1 1 2 2 2 2 3 3 3 3 3 3 3 3 3 3 4
5 5 7 4 3 4 3 8 5 8 8 8 8 8 8 9 8 8 7 6 5 5 5 5 5 4 4 4 3 3 2 1 1 1 2 1 1 2 2 2 3 3 3 3 3 3 4 4 4
Wind_Direction
179 141 104 82 52 29 321 291 293 31 59 59 72 77 79 57 70 110 247 117 134 147 154 149 144 143 145 147 149 149 149 151 154 158 160 160 159 154 153 149 144 140 131 123 107 95 78 74 65
145 131 108 69 82 84 291 283 7 88 135 122 75 69 71 69 68 91 80 125 135 143 147 149 148 147 152 158 164 167 171 174 180 186 187 187 189 191 195 194 192 195 189 171 152 146 127 103 71
138 140 122 103 134 177 215 243 92 81 106 96 79 54 64 63 62 87 145 139 128 126 128 145 144 145 150 158 168 175 182 191 196 199 202 203 206 210 211 212 211 210 209 201 189 189 191 197 218
145 115 81 101 148 222 206 217 141 107 77 66 99 76 60 44 95 120 130 130 125 121 121 138 142 148 154 161 169 181 197 210 214 211 212 213 213 215 217 216 215 216 221 217 203 204 214 223 234
105 106 89 109 212 246 237 186 118 100 84 81 94 92 78 38 114 118 125 131 133 135 138 146 146 153 164 177 192 205 224 237 236 232 228 226 223 222 222 222 220 220 223 223 214 211 220 226 231
95 90 98 171 229 258 281 135 93 93 107 114 101 106 126 186 144 150 145 141 137 137 142 143 160 172 194 209 219 230 242 251 251 251 245 239 236 234 230 227 226 224 225 225 220 217 221 228 233
134 104 135 175 182 176 185 106 104 104 100 105 118 112 157 214 191 166 145 142 143 140 133 132 297 274 257 255 252 249 252 260 264 267 265 258 249 242 238 235 232 231 228 227 224 221 221 226 232
132 98 99 180 165 203 208 117 122 114 103 98 109 133 175 208 181 140 127 124 127 129 132 159 215 298 299 297 289 277 267 264 269 268 264 263 262 260 252 244 239 237 233 230 228 225 224 226 231
90 79 174 215 184 202 188 129 82 68 89 67 81 141 166 156 138 118 103 78 84 93 92 98 71 357 310 291 313 312 301 285 281 276 271 268 266 269 267 259 251 244 238 234 230 227 226 227 233
77 101 262 251 204 196 181 142 137 100 91 91 96 107 121 131 134 128 122 112 102 93 76 72 63 32 17 359 348 308 303 295 287 276 273 266 247 244 247 262 259 257 250 243 235 231 230 227 221
87 121 299 302 276 225 170 138 128 130 140 169 159 151 141 138 135 131 133 133 133 111 78 66 57 39 29 1 339 324 316 305 295 286 272 263 254 251 249 251 263 262 255 249 247 238 219 204 208
99 76 286 291 299 261 176 127 103 150 174 171 162 154 148 139 137 142 139 134 117 97 84 54 49 36 19 14 347 340 333 322 308 291 290 275 265 255 247 241 239 236 231 220 234 243 228 212 217
124 158 274 275 295 299 105 119 129 154 155 155 154 149 151 147 142 139 131 122 112 102 80 55 54 47 34 21 350 357 337 332 328 330 322 310 277 273 261 257 247 238 226 217 221 223 233 227 224
162 166 224 288 296 311 131 147 130 180 165 159 159 162 162 155 149 134 124 119 117 111 94 77 66 54 41 20 353 341 339 345 360 8 357 359 343 317 298 279 261 252 241 228 221 221 225 227 221
112 133 218 280 270 241 127 215 204 180 171 170 172 172 165 155 144 142 144 139 136 128 101 97 96 58 43 17 359 357 348 358 7 1 1 8 7 359 339 317 291 269 254 239 229 229 223 229 229
123 114 202 246 224 211 135 237 237 176 172 180 182 176 164 155 150 149 147 141 136 124 94 60 70 60 41 24 6 358 359 8 5 3 4 6 6 7 2 356 323 305 291 261 236 228 227 228 233
103 179 219 237 210 200 186 234 228 186 177 184 186 181 162 153 150 153 149 143 135 122 101 84 81 62 41 24 12 5 6 9 359 5 5 1 3 7 16 4 339 341 348 325 291 253 232 229 238
192 213 221 227 207 194 220 234 208 202 189 191 187 174 162 162 166 160 149 141 128 109 99 98 81 52 41 22 13 9 9 1 357 358 355 358 358 3 13 11 0 4 9 352 323 282 254 234 238
168 180 222 236 196 186 222 229 207 202 196 190 184 171 168 167 161 151 145 136 117 100 96 91 85 54 45 31 17 8 353 343 348 348 353 358 359 360 11 12 2 8 6 343 333 308 296 284 219
158 160 208 258 203 188 221 236 206 194 198 190 181 171 163 151 148 152 144 133 123 117 107 101 101 89 60 47 343 286 317 317 323 337 348 354 358 355 9 14 0 358 1 1 2 8 356 321 89
166 173 188 208 258 283 176 335 214 207 199 189 179 165 157 160 161 161 150 143 137 134 132 127 129 119 92 53 33 18 11 356 354 348 342 341 351 355 1 8 6 2 10 357 350 360 65 297 282
195 209 187 177 116 281 166 228 265 204 189 188 179 159 162 162 160 161 156 154 156 160 151 142 143 142 143 96 70 62 40 342 304 305 318 333 349 350 354 5 9 7 5 353 337 9 12 125 279
196 203 173 133 122 342 326 150 276 173 194 208 196 174 168 167 165 166 167 166 167 165 158 155 152 163 190 139 116 106 21 292 302 324 345 344 339 343 346 350 357 356 346 334 335 344 341 262 213
146 65 42 48 66 319 234 156 242 211 203 197 197 185 172 169 167 166 166 158 161 163 162 162 160 191 219 200 146 161 184 290 344 344 345 339 331 333 336 338 341 334 327 321 322 322 321 299 269
83 80 34 3 8 262 241 162 234 229 196 179 180 184 178 170 164 166 165 167 171 172 178 178 177 204 224 223 213 199 198 197 217 274 308 324 327 320 316 328 327 323 317 313 322 331 322 308 297
159 131 150 189 223 281 332 209 256 257 174 159 165 171 174 176 175 176 179 178 180 182 184 186 193 212 222 223 234 219 200 196 227 241 247 274 279 282 299 322 327 329 330 336 345 348 327 323 307
133 148 167 141 204 267 301 343 338 1 151 159 170 173 184 186 185 184 184 183 182 186 193 195 199 211 219 220 227 224 209 209 233 256 258 272 288 299 321 332 335 336 346 354 359 341 329 332 316
143 144 97 114 155 283 301 227 224 215 215 206 195 194 200 194 188 185 184 186 188 193 200 201 199 205 215 214 219 206 214 220 226 233 269 284 302 317 329 335 336 340 348 353 354 334 329 340 324
166 142 111 120 155 160 227 256 223 197 201 201 208 206 198 192 190 189 189 190 189 192 196 200 205 209 215 214 212 201 214 225 216 219 256 271 301 320 331 331 338 343 347 349 355 345 346 343 329
175 179 145 150 216 169 187 263 267 189 192 190 202 206 200 192 189 188 185 184 188 193 198 201 201 203 214 209 197 202 209 207 206 231 258 271 318 330 336 343 350 346 345 346 352 343 343 335 324